Location: Augirein
(42.9320°N, 0.9181°E)
Time: 02:23:58
(UTC+00:00)

Helios 1B rocket - Pass Details

Date: 20 June 2021
Orbit: 573 x 583 km, 98.2° (Epoch: 04 August)

Event Time Altitude Azimuth Distance (km) Brightness Sun altitude
Rises 02:23:39 0° 4° (N) 2,797 7.0 -15.6°
Reaches altitude 10° 02:25:56 10° 356° (N) 1,893 5.8 -15.4°
Maximum altitude 02:29:39 35° 290° (WNW) 941 3.3 -15.0°
Enters shadow 02:31:30 23° 242° (WSW) 1,241 3.6 -14.8°
